Location: Hains Lake
(37.8540°N, 99.8578°W)
Time: 03:47:33
(UTC+00:00)

Transit 2A - Pass Details

Date: 27 April 2021
Orbit: 602 x 957 km, 66.7° (Epoch: 13 May)

Event Time Altitude Azimuth Distance (km) Brightness Sun altitude
Rises 10:29:44 0° 168° (SSE) 3,122 9.0 -14.8°
Reaches altitude 10° 10:32:52 10° 148° (SSE) 2,137 8.3 -14.3°
Maximum altitude 10:35:57 17° 108° (ESE) 1,657 8.3 -13.8°
Drops below altitude 10° 10:38:54 10° 68° (ENE) 2,034 9.7 -13.3°
Sets 10:41:46 0° 48° (NE) 2,905 10.8 -12.8°
